Theta_e
300 300 299 300 301 302 302 303 303 303 304 305 306 308 310 310 310 310 310 310 310 310 310 311 311 310 309 309 310 308 306 303 299 297 297 298 301 301 300 300 299 298 297
301 300 299 300 300 301 302 302 303 303 303 305 306 307 310 311 310 310 310 310 309 310 310 311 310 311 311 309 309 307 304 302 300 297 296 296 296 298 298 297 295 294 294
300 300 299 299 300 301 301 302 302 303 303 305 306 306 309 311 311 311 311 310 310 309 310 311 311 311 311 309 306 305 304 302 300 298 295 294 293 295 296 295 293 292 291
300 299 299 299 299 300 301 302 302 303 303 304 305 306 308 310 311 311 311 310 310 310 310 310 310 311 310 306 305 304 303 300 298 296 294 293 292 292 293 291 290 291 289
300 300 300 300 300 299 300 301 302 302 302 303 305 306 307 309 310 311 311 310 310 309 309 309 309 310 311 310 307 302 301 299 298 296 294 292 291 290 292 290 289 289 288
300 300 300 299 299 299 299 300 301 302 302 303 305 305 306 307 310 311 310 311 310 309 308 309 309 309 310 310 309 307 307 301 299 297 296 294 291 291 292 290 289 287 286
300 300 299 299 298 299 299 299 300 301 302 303 305 305 305 306 309 310 311 311 310 310 309 308 308 309 308 309 309 307 305 305 309 306 298 296 293 294 295 291 289 289 287
299 298 299 299 298 298 298 299 299 300 302 303 304 304 304 305 307 309 311 311 311 310 309 308 308 308 308 309 308 306 306 305 304 303 302 303 301 300 298 294 290 290 288
297 298 298 298 298 298 298 298 299 300 301 303 304 304 304 305 306 308 309 310 311 310 310 309 308 308 308 307 306 305 306 304 303 302 302 301 301 300 297 295 291 290 284
296 297 298 298 298 298 298 298 299 300 301 302 303 303 303 304 304 307 309 309 310 310 310 309 309 308 308 308 308 307 304 303 301 300 299 299 299 299 300 299 297 291 288
296 296 297 297 297 297 298 298 298 299 300 300 302 304 303 303 304 305 307 310 310 310 310 310 309 308 308 308 308 307 308 307 302 301 300 298 297 296 296 296 297 296 295
295 295 296 296 296 297 297 298 298 298 298 301 302 303 303 304 305 305 306 309 310 309 310 311 310 309 308 308 308 308 307 306 303 300 299 297 296 295 295 295 294 294 294
294 294 294 295 296 296 297 296 296 297 299 301 302 302 303 304 305 306 307 308 309 310 309 309 309 309 308 308 308 308 306 305 303 300 299 299 299 297 295 293 292 292 292
291 291 292 292 293 293 293 294 295 295 298 300 300 300 301 302 304 305 306 307 308 308 308 308 307 307 306 307 306 304 304 305 305 304 302 299 297 295 294 293 291 290 290
290 289 290 290 291 291 291 292 293 295 297 298 298 299 300 301 301 302 304 304 303 305 306 305 304 303 303 302 302 304 303 301 301 302 300 298 296 294 292 292 291 289 289
289 289 290 290 290 290 290 290 289 291 292 296 296 296 296 297 299 299 301 302 303 303 301 303 303 302 300 302 302 301 301 301 301 301 299 298 296 293 291 290 289 288 289
288 288 288 288 288 289 290 291 291 290 290 290 291 292 293 294 296 298 299 300 302 302 300 301 302 303 304 302 301 302 302 304 302 300 297 297 294 292 290 289 289 288 288
287 286 286 285 286 286 286 286 288 290 290 291 291 291 291 290 292 295 296 297 299 300 300 298 297 297 298 298 297 297 298 297 296 296 295 295 294 293 290 289 289 289 289
284 284 284 284 285 285 285 285 286 287 287 287 289 290 291 291 291 293 295 295 295 295 295 295 295 295 296 296 296 295 295 295 296 295 294 294 293 292 291 291 290 289 289
282 283 283 283 283 284 284 285 285 285 285 285 286 287 288 289 290 291 291 292 292 293 293 293 293 294 294 295 295 294 294 294 293 293 293 292 292 292 291 291 290 289 289
281 282 282 282 282 283 283 284 284 284 284 284 284 285 286 286 286 288 289 289 290 290 290 291 291 292 292 293 293 293 293 293 293 293 292 292 292 291 292 291 291 291 290
280 280 281 281 281 281 282 282 283 283 283 283 283 284 284 285 285 285 286 286 287 288 288 289 290 290 290 291 291 291 291 292 292 292 292 291 291 291 291 290 290 290 289
279 279 278 278 278 279 280 280 280 280 281 281 282 282 283 284 284 284 284 285 285 285 286 287 287 288 289 289 290 290 290 291 291 291 290 290 290 290 290 289 289 289 288
277 277 277 276 276 276 276 276 276 276 276 276 277 278 279 280 281 282 282 283 283 284 285 285 285 286 286 287 288 288 289 290 290 290 290 289 289 289 289 289 289 288 288
276 276 275 275 275 275 274 274 274 274 274 274 274 275 275 275 276 277 277 278 279 281 282 283 284 285 285 285 286 286 287 287 288 289 289 288 288 288 288 288 288 287 287
275 275 274 274 274 274 273 273 273 273 273 273 273 273 273 274 274 274 274 275 276 277 277 279 281 282 284 284 285 285 285 286 287 287 288 288 288 288 287 287 287 286 286
Wind_Speed
19 16 15 14 13 13 11 9 8 8 8 7 6 6 5 5 5 3 4 4 5 9 13 11 10 16 21 19 15 16 22 24 27 15 19 25 28 28 27 26 22 20 17
19 17 16 14 14 13 12 11 10 8 8 7 6 6 6 6 6 6 5 6 6 8 12 14 16 19 18 17 23 19 18 22 38 27 21 21 25 25 25 24 21 19 19
19 18 17 16 16 14 14 13 12 10 9 8 7 7 7 6 7 6 6 6 7 8 12 13 19 19 18 17 24 27 25 30 24 28 22 21 23 23 24 23 22 22 21
19 19 18 18 17 16 15 14 13 12 10 8 8 8 8 6 7 8 6 7 8 9 11 12 15 19 19 19 24 26 27 29 27 25 22 19 24 22 23 26 24 20 20
19 19 20 20 18 16 16 15 14 13 11 9 8 8 9 8 8 9 8 7 7 9 12 12 15 15 17 19 25 29 30 30 30 29 22 19 20 25 25 21 24 22 18
21 22 19 19 18 17 16 15 14 13 11 10 8 8 9 10 10 12 11 10 9 11 12 15 15 15 18 19 20 26 34 36 29 27 20 23 23 24 26 29 30 20 6
18 19 19 19 18 18 16 15 14 13 12 11 10 8 8 11 11 11 12 12 12 12 14 16 18 19 19 20 18 23 32 34 36 40 31 28 30 38 35 33 27 22 10
16 17 18 20 19 18 17 15 14 14 13 11 10 9 8 11 12 11 12 14 14 14 15 16 20 21 23 23 23 26 27 30 28 27 25 35 33 39 36 29 29 19 10
16 17 19 20 20 20 19 17 15 14 13 12 10 8 9 11 12 14 12 16 16 15 15 17 19 23 23 24 26 27 26 28 27 26 24 26 32 27 36 30 29 25 8
15 17 18 18 18 18 16 15 14 13 12 12 10 9 10 9 11 13 13 15 19 19 17 17 19 22 26 26 26 27 28 29 26 23 20 18 23 25 29 31 33 31 15
15 16 16 16 16 15 14 14 13 13 12 11 10 9 10 11 11 13 13 16 20 21 21 20 21 22 23 27 29 29 29 25 26 23 21 21 23 26 30 34 33 34 30
18 18 17 15 14 14 14 13 12 12 10 10 9 8 9 10 10 12 11 12 17 21 23 22 22 25 25 27 29 28 27 23 25 25 25 26 28 30 31 33 34 32 29
19 17 15 14 14 13 13 11 11 10 11 9 8 7 7 6 7 11 11 10 12 15 19 19 21 24 26 27 26 27 26 24 25 29 30 32 32 30 29 31 31 30 28
21 18 15 14 12 11 10 9 9 10 10 7 5 3 2 5 5 7 9 11 12 15 15 14 13 17 22 23 25 26 26 25 27 32 33 31 29 27 29 31 32 32 28
21 18 15 13 11 10 9 7 8 8 8 6 3 2 3 4 4 3 5 7 9 9 12 11 12 16 18 21 22 23 25 25 27 29 29 30 29 30 31 32 32 33 25
21 16 14 14 13 11 10 8 5 4 6 8 6 4 3 3 3 4 4 3 6 9 11 13 15 17 21 23 24 25 26 27 28 29 29 29 31 32 31 32 31 30 27
19 17 15 12 9 9 8 8 8 6 6 6 2 4 6 4 5 6 6 6 5 6 9 8 12 14 17 20 23 26 28 30 30 30 31 30 30 29 29 30 29 28 26
16 14 11 10 8 8 7 5 5 3 4 4 4 3 5 4 5 6 4 5 5 9 10 10 7 9 10 12 16 20 22 22 23 27 29 30 31 30 29 29 31 29 26
13 11 10 9 8 8 7 6 5 4 3 2 1 2 6 5 4 2 5 5 6 5 6 6 7 7 7 7 8 11 15 18 21 24 27 31 32 32 31 31 30 32 27
12 11 10 9 8 7 7 6 5 4 3 1 2 4 5 6 5 5 2 3 5 6 6 6 6 6 6 6 6 8 10 13 17 20 23 26 28 31 31 31 31 29 32
12 11 12 9 6 5 5 5 4 3 2 1 1 3 5 5 4 5 5 3 4 4 5 6 7 7 7 7 8 9 11 14 15 17 20 22 24 28 31 31 32 33 30
11 11 10 8 7 5 4 4 4 2 1 0 1 3 4 3 3 4 4 4 5 5 5 6 6 6 7 7 8 10 12 14 16 16 19 20 22 24 27 29 31 29 29
12 13 10 8 6 5 3 3 3 2 1 1 2 2 3 3 4 5 6 6 7 7 7 8 9 9 8 8 8 9 11 13 15 15 17 19 21 22 25 28 28 27 27
11 12 11 8 7 5 5 4 2 2 3 4 5 6 7 7 8 9 9 10 9 8 7 8 9 11 11 12 12 11 11 12 12 13 15 19 22 23 24 27 28 28 26
9 9 8 7 6 5 4 3 3 3 4 4 5 5 7 8 9 9 10 11 12 12 11 11 11 10 11 13 14 14 15 15 14 14 15 17 19 21 24 26 27 28 28
8 7 6 5 4 4 3 3 4 4 5 6 6 7 7 8 9 10 10 11 11 11 12 13 13 12 13 13 13 14 15 15 17 16 15 16 18 20 22 25 27 27 27
Wind_Direction
191 192 194 194 194 193 192 194 188 187 183 180 176 166 165 145 153 137 129 117 123 127 131 132 134 141 140 146 139 144 138 137 119 111 114 125 128 132 129 127 123 120 119
194 194 195 194 195 196 196 195 195 187 188 185 184 176 173 173 154 170 151 148 129 132 140 139 142 153 144 147 152 138 138 138 137 132 128 127 129 137 134 128 119 117 119
193 193 196 196 197 199 198 197 196 193 194 191 186 187 187 188 171 179 170 162 153 147 154 150 158 160 156 159 156 140 138 143 142 140 138 144 134 143 138 131 129 124 115
194 195 197 201 200 200 201 201 200 197 196 198 193 195 190 190 187 186 187 181 179 177 171 177 172 176 167 163 161 156 149 145 146 137 132 140 144 150 147 138 129 131 123
196 198 202 203 202 200 201 203 205 201 200 200 197 201 198 194 199 198 196 198 201 193 192 186 188 191 186 177 173 163 155 152 151 148 152 158 157 160 163 159 143 140 135
199 205 203 199 199 201 201 202 206 205 203 200 197 207 207 203 198 200 204 211 210 204 201 199 195 193 201 196 188 181 183 166 164 163 170 168 175 173 175 167 154 143 142
199 203 201 198 197 198 200 200 205 205 207 203 201 203 215 212 208 208 210 214 218 209 203 203 197 197 196 191 188 189 186 187 190 189 180 185 177 187 182 175 173 169 167
197 198 198 198 197 194 195 197 201 204 208 210 208 210 212 218 212 213 209 214 214 215 209 204 201 199 199 195 192 190 197 203 205 204 213 205 201 194 196 188 178 169 153
192 193 193 193 191 192 191 193 197 198 202 209 215 218 227 217 211 214 215 210 219 220 214 211 207 206 205 202 196 191 196 209 212 218 225 224 213 208 198 188 179 170 147
184 185 186 187 189 191 192 191 194 195 199 203 207 226 238 222 217 218 218 217 220 220 217 217 213 216 206 206 208 205 200 205 203 205 214 222 224 217 218 213 199 180 163
156 162 168 175 182 185 185 189 189 192 195 199 207 227 241 239 226 230 233 218 223 221 222 218 217 214 215 213 215 217 218 209 204 207 205 204 205 207 210 211 214 210 198
149 149 152 159 166 172 178 181 186 186 186 195 215 229 232 235 245 236 244 237 224 225 225 227 227 220 214 215 218 223 227 224 204 200 200 200 202 207 211 212 215 214 217
144 141 145 151 158 165 171 171 169 178 192 208 213 222 219 225 232 237 244 237 235 231 234 241 230 223 220 219 224 227 225 219 205 201 207 214 216 217 212 212 214 216 219
134 135 136 141 140 144 156 162 168 180 196 207 209 218 198 202 217 247 252 245 237 235 231 231 228 224 228 223 219 223 225 222 214 214 217 220 219 214 213 213 208 210 213
125 126 130 131 137 142 146 154 166 181 196 204 190 193 189 160 168 210 236 243 226 221 224 208 203 199 207 214 216 219 221 221 218 219 219 219 215 214 213 212 210 206 206
126 125 121 118 115 115 117 107 99 174 211 220 231 241 237 230 235 253 243 237 233 218 207 209 206 208 208 207 209 211 216 220 224 226 227 225 220 213 206 208 206 205 204
125 126 128 128 126 127 118 116 107 98 88 81 103 241 259 267 268 252 249 237 216 214 221 237 228 226 228 229 225 223 225 227 231 230 230 230 226 219 207 205 203 204 208
126 129 129 129 126 118 114 110 103 94 89 81 65 42 32 354 271 268 246 247 221 225 236 257 288 279 274 265 255 246 244 245 241 236 235 233 230 222 209 209 208 207 208
125 127 127 123 116 115 114 107 101 97 77 36 95 56 40 29 30 282 254 273 287 287 289 288 290 289 286 281 275 271 264 257 252 245 240 235 233 224 219 217 215 213 209
120 125 127 120 116 114 111 112 105 91 90 65 43 9 0 357 33 25 20 317 301 296 297 298 299 294 289 284 276 268 259 258 256 251 248 244 240 235 224 222 219 213 213
120 117 113 104 97 106 111 108 101 101 103 66 13 1 358 353 329 311 323 340 335 316 322 318 306 298 292 282 275 271 268 265 261 260 257 253 248 240 238 233 229 226 221
118 110 108 112 124 126 114 109 102 109 128 330 337 333 334 351 332 326 315 311 311 312 309 301 299 299 298 294 292 284 276 274 273 269 266 262 258 254 248 240 234 228 222
113 110 108 107 110 118 118 97 98 109 234 277 329 336 322 314 305 308 306 311 313 311 306 300 304 303 298 293 286 285 283 281 283 283 278 273 265 259 252 240 234 228 223
113 112 111 106 98 86 73 63 39 355 326 316 306 297 292 288 292 286 290 285 290 289 290 292 295 299 296 297 294 291 293 292 291 287 280 275 272 267 259 249 242 235 229
110 104 103 101 95 83 67 42 20 360 345 334 323 321 314 310 305 300 296 291 290 288 285 280 282 285 286 290 290 289 293 294 293 292 286 278 273 269 261 252 246 241 238
104 95 86 75 68 51 22 5 351 348 338 327 322 320 319 316 313 311 309 309 306 299 297 291 279 274 274 279 280 276 279 280 285 292 292 287 281 276 268 258 251 245 243